Flag for American Samoa Weather past 2 weeks in Pago Pago, American Samoa

Now
81 °F

Cloudy.


Feels Like: 88 °F
Forecast: 76 / 85 °F
Wind: No wind

Location: Pago Pago / Int. Airp.

Current Time: Apr 21, 2015 at 8:48:48 AM

Latest Report: Apr 21, 2015 at 7:50 AM


Visibility: 12 mi

Pressure: 29.79 "Hg

Humidity: 86%

Dew point: 77 °F

Location of Pago PagoLocation

Historic Weather in Pago Pago — Graph

°F

Pago Pago temperature yesterday

Maximum temperature yesterday: 90 °F (at 12:50 PM)
Minimum temperature yesterday: 77 °F (at 5:55 AM)
Average temperature yesterday: 82 °F

Past Weeks' High & Low Weather Summary

 TemperatureHumidityPressure
High90 °F (Apr 12, 12:53 PM)96% (Apr 14, 1:53 AM)29.98 "Hg (Apr 14, 1:53 AM)
Low76 °F (Apr 18, 11:51 AM)60% (Apr 9, 9:50 AM)29.72 "Hg (Apr 6, 3:51 PM)
Average83 °F79%29.85 "Hg
* Reported Apr 6 8:50 AM — Apr 21 7:50 AM, Pago Pago, Weather by CustomWeather, © 2015

Note: Actual official high and low records may vary slightly from our data, if they occured in-between our weather recording intervals... More about our weather records

Advertising

Pago Pago weather history for previous 24 hours

 ConditionsComfort  
Time TempWeatherWind HumidityBarometerVisibility
7:50 AM
Tue, Apr 21
81 °FCloudy.No wind86%29.79 "Hg12 mi
6:55 AM77 °FPartly sunny.3 mph91%29.78 "Hg12 mi
5:56 AM78 °FPartly cloudy.No wind90%29.77 "Hg11 mi
4:55 AM77 °FPartly cloudy.2 mph94%29.76 "Hg10 mi
2:50 AM77 °FPartly cloudy.3 mph91%29.77 "Hg10 mi
1:50 AM79 °FPassing clouds.No wind89%29.78 "Hg10 mi
12:54 AM78 °FPartly cloudy.2 mph90%29.79 "Hg10 mi
11:52 PM
Mon, Apr 20
78 °FPartly cloudy.2 mph89%29.80 "Hg10 mi
10:50 PM80 °FPartly cloudy.2 mph85%29.80 "Hg10 mi
9:55 PM80 °FOvercast.3 mph83%29.80 "Hg10 mi
8:52 PM80 °FOvercast.3 mph84%29.81 "Hg10 mi
7:50 PM80 °FOvercast.3 mph84%29.80 "Hg10 mi
6:56 PM81 °FPartly cloudy.3 mph84%29.78 "Hg10 mi
5:50 PM83 °FBroken clouds.2 mph77%29.77 "Hg12 mi
4:56 PM87 °FBroken clouds.7 mph68%29.75 "Hg12 mi
3:53 PM88 °FBroken clouds.8 mph66%29.75 "Hg12 mi
2:50 PM87 °FBroken clouds.9 mph70%29.78 "Hg12 mi
1:54 PM89 °FBroken clouds.9 mph66%29.76 "Hg12 mi
12:50 PM90 °FBroken clouds.10 mph67%29.77 "Hg12 mi
11:50 AM87 °FBroken clouds.6 mph68%29.80 "Hg12 mi
10:50 AM87 °FBroken clouds.7 mph70%29.82 "Hg12 mi
9:51 AM86 °FBroken clouds.7 mph74%29.83 "Hg12 mi
8:51 AM83 °FBroken clouds.3 mph84%29.82 "Hg12 mi
Weather by CustomWeather, © 2015

See weather overviewHow to use our weather pages